Find Starlink 11168

NORAD ID: 60183 Int'l Des: 2024-124 Owner: SPXS Country: US Constellation: starlink operational
別名: STARLINK-11168 [DTC] celestrak
LEOCIRCULAR

現在のビュー

3D地球を読み込み中...

About Starlink 11168

Starlink 11168 (NORAD 60183) is a starlink constellation satellite (v2 mini d2c) launched Jul 3, 2024 by SPXS of US. It operates in LEO, CIRCULAR orbit with a mass of 960.00 kg.

次回通過

Passes for default location (London). Set your location on the main map for personalized predictions.

高度履歴

Loading altitude history...

軌道要素

1 60183U 24124A 26258.41444056 -.00000112 00000-0 39326-5 0 9995
2 60183 53.1577 305.8990 0000759 69.6993 290.4106 15.69698759127529
Epoch: Sep 15, 2026 • Age: 12 hours

現在のステータス

高度 373.9 km
遠地点 / 近地点 N/A
速度 7.68 km/s
衛星直下点 -41.65°S, 61.95°W
打ち上げ日 Jul 3, 2024
運用期間 2.2 years
タイプ internet

技術仕様

分類 Payload
質量 960.00 kg
乾燥質量 910.00 kg
長さ 0.30 m
スパン 29.00 m
形状 ? Box + pan
製造者 SPXS
バスタイプ Starlink V2MD
フェーズステータス In Orbit
所有者/国 SPXS/US

Most Searched